{"data":{"norad_id":67929,"intl_designator":"2026-036AB","name":"STARLINK-36809","alt_names":[],"object_type":"PAYLOAD","status":"ACTIVE","operator":null,"country":"US","launch_date":"2026-02-22","launch_site_code":"AFETR","launch_vehicle":null,"mission":null,"orbit_class":"UNKNOWN","rcs_meters":null,"size_class":null,"mass_kg":null,"dimensions":null,"purposes":["comms"],"wikipedia_slug":null,"has_3d_model":false,"image_url":null,"decayed_at":null,"tle_current":{"epoch":"2026-05-25T02:59:34.270944Z","epoch_age_seconds":64310,"freshness":"FRESH","line1":"1 67929U 26036AB  26145.12470221  .00006972  00000+0  26255-3 0  9993","line2":"2 67929  43.0026 173.4329 0000082 327.7804  32.3042 15.27591499 15417","mean_motion":15.27591499,"eccentricity":8.2e-6,"inclination_deg":43.0026,"raan_deg":173.4329,"arg_perigee_deg":327.7804,"mean_anomaly_deg":32.3042,"bstar":0.00026255,"rev_number":1541,"period_min":94.266039117307,"perigee_km":482.95840266926,"apogee_km":483.07092555655,"semimajor_km":6861.1516641129,"source":"CELESTRAK","updated_at":"2026-05-25T13:38:21.765310Z"}}}